Volver al catálogo

FIREFLY ALPHA R/B

ActivoSSO
NORAD 60210·ROCKET BODY·🇺🇸 United States

Lanzado Jul 4, 2024 desde Vandenberg Space Force Base

Loading…

Próximos Pases (próximas 24 horas)

TLE

ActualizadoSource: Space-Track

Época: Sep 14, 2026, 14:40 UTC

1 60210U 24125H   26257.61143205  .00056241  00000-0  39054-3 0  9999
2 60210  97.1947 124.1749 0015948 194.5086 165.5723 15.74096066124006

Sigue FIREFLY ALPHA R/B en tiempo real con AllMySat

Download on the App Store